• în România
  • Lista ţărilor
  • Pe 7 zile
  • Temperatura apei
  • Hartă satelitară
  • Meteo pe hartă
  • Widget-uri
  • user-avatar
    Intrare

    Meteo pe oră la Polyanskoe

    Astăzi, 18 August, Sâmbătă

    Timp Temperatura Precipitaţii Vânt Presiune Umiditate
    00:00 +15°C° 0 mm 4 m/s 744 mmHg 72%
    01:00 +14°C° 0 mm 4 m/s 744 mmHg 74%
    02:00 +14°C° 0 mm 4 m/s 744 mmHg 75%
    03:00 +13°C° 0 mm 4 m/s 744 mmHg 76%
    04:00 +13°C° 0 mm 4 m/s 744 mmHg 76%
    05:00 +13°C° 0 mm 5 m/s 745 mmHg 76%
    06:00 +13°C° 0 mm 5 m/s 745 mmHg 77%
    07:00 +14°C° 0 mm 5 m/s 745 mmHg 70%
    08:00 +16°C° 0 mm 6 m/s 745 mmHg 63%
    09:00 +19°C° 0 mm 6 m/s 745 mmHg 56%
    10:00 +20°C° 0 mm 6 m/s 745 mmHg 52%
    11:00 +21°C° 0 mm 6 m/s 745 mmHg 49%
    12:00 +21°C° 0 mm 6 m/s 745 mmHg 46%
    13:00 +22°C° 0 mm 6 m/s 745 mmHg 45%
    14:00 +22°C° 0 mm 6 m/s 745 mmHg 45%
    15:00 +22°C° 0 mm 6 m/s 745 mmHg 44%
    16:00 +21°C° 0 mm 5 m/s 745 mmHg 48%
    17:00 +21°C° 0 mm 4 m/s 745 mmHg 52%
    18:00 +20°C° 0 mm 4 m/s 745 mmHg 55%
    19:00 +18°C° 0 mm 4 m/s 745 mmHg 59%
    20:00 +17°C° 0 mm 3 m/s 746 mmHg 63%
    21:00 +14°C° 0 mm 3 m/s 746 mmHg 68%
    22:00 +13°C° 0 mm 3 m/s 746 mmHg 70%
    23:00 +13°C° 0 mm 3 m/s 746 mmHg 72%

    Mâine, 19 August, Duminică

    Timp Temperatura Precipitaţii Vânt Presiune Umiditate
    00:00 +12°C° 0 mm 3 m/s 746 mmHg 75%
    01:00 +11°C° 0 mm 3 m/s 746 mmHg 76%
    02:00 +11°C° 0 mm 3 m/s 746 mmHg 78%
    03:00 +11°C° 0 mm 3 m/s 747 mmHg 80%
    04:00 +11°C° 0 mm 3 m/s 747 mmHg 80%
    05:00 +11°C° 0 mm 3 m/s 747 mmHg 80%
    06:00 +11°C° 0 mm 3 m/s 746 mmHg 80%
    07:00 +13°C° 0 mm 4 m/s 747 mmHg 73%
    08:00 +15°C° 0 mm 4 m/s 747 mmHg 66%
    09:00 +17°C° 0 mm 5 m/s 747 mmHg 58%
    10:00 +19°C° 0 mm 5 m/s 747 mmHg 55%
    11:00 +20°C° 0 mm 5 m/s 747 mmHg 51%
    12:00 +21°C° 0 mm 5 m/s 746 mmHg 48%
    13:00 +21°C° 0 mm 5 m/s 746 mmHg 47%
    14:00 +21°C° 0 mm 4 m/s 746 mmHg 46%
    15:00 +22°C° 0 mm 4 m/s 746 mmHg 46%
    16:00 +21°C° 0 mm 4 m/s 746 mmHg 49%
    17:00 +20°C° 0 mm 3 m/s 745 mmHg 53%
    18:00 +20°C° 0 mm 3 m/s 745 mmHg 56%
    19:00 +18°C° 0 mm 2 m/s 745 mmHg 60%
    20:00 +17°C° 0 mm 2 m/s 745 mmHg 64%
    21:00 +15°C° 0 mm 1 m/s 746 mmHg 67%
    22:00 +14°C° 0 mm 1 m/s 746 mmHg 69%
    23:00 +14°C° 0 mm 1 m/s 746 mmHg 71%

    Poimâine, 20 August, Luni

    Timp Temperatura Precipitaţii Vânt Presiune Umiditate
    00:00 +13°C° 0 mm 1 m/s 746 mmHg 72%
    01:00 +13°C° 0 mm 1 m/s 746 mmHg 74%
    02:00 +11°C° 0 mm 0 m/s 746 mmHg 75%
    03:00 +11°C° 0 mm 0 m/s 746 mmHg 76%
    04:00 +11°C° 0 mm 0 m/s 746 mmHg 75%
    05:00 +12°C° 0 mm 0 m/s 746 mmHg 74%
    06:00 +12°C° 0 mm 0 m/s 746 mmHg 73%
    07:00 +15°C° 0 mm 1 m/s 746 mmHg 67%
    08:00 +18°C° 0 mm 1 m/s 746 mmHg 60%
    09:00 +20°C° 0 mm 1 m/s 746 mmHg 54%
    10:00 +22°C° 0 mm 1 m/s 746 mmHg 50%
    11:00 +23°C° 0 mm 1 m/s 746 mmHg 46%
    12:00 +24°C° 0 mm 1 m/s 746 mmHg 42%
    13:00 +24°C° 0 mm 1 m/s 745 mmHg 41%
    14:00 +25°C° 0 mm 1 m/s 745 mmHg 40%
    15:00 +25°C° 0 mm 2 m/s 745 mmHg 39%
    16:00 +25°C° 0 mm 1 m/s 745 mmHg 43%
    17:00 +24°C° 0 mm 1 m/s 744 mmHg 46%
    18:00 +24°C° 0 mm 1 m/s 744 mmHg 50%
    19:00 +22°C° 0 mm 1 m/s 744 mmHg 53%
    20:00 +20°C° 0 mm 1 m/s 744 mmHg 57%
    21:00 +19°C° 0 mm 1 m/s 744 mmHg 60%
    22:00 +18°C° 0 mm 1 m/s 744 mmHg 62%
    23:00 +18°C° 0 mm 1 m/s 744 mmHg 64%

    21 August, Marţi

    Timp Temperatura Precipitaţii Vânt Presiune Umiditate
    00:00 +16°C° 0 mm 1 m/s 744 mmHg 65%
    01:00 +16°C° 0 mm 2 m/s 744 mmHg 66%
    02:00 +16°C° 0 mm 2 m/s 744 mmHg 67%
    03:00 +16°C° 0 mm 2 m/s 744 mmHg 67%
    04:00 +16°C° 0 mm 2 m/s 744 mmHg 67%
    05:00 +16°C° 0 mm 2 m/s 744 mmHg 67%
    06:00 +16°C° 0 mm 2 m/s 744 mmHg 67%
    07:00 +18°C° 0 mm 3 m/s 744 mmHg 61%
    08:00 +20°C° 0 mm 3 m/s 744 mmHg 55%
    09:00 +22°C° 0 mm 3 m/s 744 mmHg 49%
    10:00 +25°C° 0 mm 4 m/s 744 mmHg 45%
    11:00 +26°C° 0 mm 4 m/s 744 mmHg 42%
    12:00 +27°C° 0 mm 4 m/s 744 mmHg 39%
    13:00 +27°C° 0 mm 4 m/s 744 mmHg 39%
    14:00 +28°C° 0 mm 4 m/s 743 mmHg 38%
    15:00 +28°C° 0 mm 4 m/s 743 mmHg 38%
    16:00 +27°C° 0 mm 3 m/s 743 mmHg 42%
    17:00 +26°C° 0 mm 3 m/s 743 mmHg 46%
    18:00 +25°C° 0 mm 2 m/s 743 mmHg 50%
    19:00 +24°C° 0 mm 2 m/s 743 mmHg 52%
    20:00 +21°C° 0 mm 2 m/s 743 mmHg 54%
    21:00 +20°C° 0 mm 2 m/s 743 mmHg 57%
    22:00 +19°C° 0 mm 2 m/s 743 mmHg 56%
    23:00 +19°C° 0 mm 2 m/s 742 mmHg 56%

    22 August, Miercuri

    Timp Temperatura Precipitaţii Vânt Presiune Umiditate
    00:00 +18°C° 0 mm 3 m/s 742 mmHg 56%
    01:00 +18°C° 0 mm 3 m/s 742 mmHg 56%
    02:00 +18°C° 0 mm 3 m/s 742 mmHg 55%
    03:00 +17°C° 0 mm 3 m/s 742 mmHg 55%
    04:00 +17°C° 0 mm 3 m/s 742 mmHg 55%
    05:00 +17°C° 0 mm 3 m/s 742 mmHg 56%
    06:00 +17°C° 0 mm 3 m/s 742 mmHg 57%
    07:00 +19°C° 0 mm 4 m/s 742 mmHg 52%
    08:00 +21°C° 0 mm 4 m/s 742 mmHg 47%
    09:00 +25°C° 0 mm 5 m/s 742 mmHg 41%
    10:00 +26°C° 0 mm 6 m/s 741 mmHg 39%
    11:00 +28°C° 0 mm 6 m/s 741 mmHg 36%
    12:00 +29°C° 0 mm 7 m/s 741 mmHg 33%
    13:00 +29°C° 0 mm 7 m/s 741 mmHg 33%
    14:00 +30°C° 0 mm 7 m/s 740 mmHg 34%
    15:00 +30°C° 0 mm 7 m/s 740 mmHg 34%
    16:00 +29°C° 0 mm 6 m/s 740 mmHg 38%
    17:00 +28°C° 0 mm 5 m/s 740 mmHg 42%
    18:00 +27°C° 0 mm 4 m/s 740 mmHg 46%
    19:00 +25°C° 0 mm 4 m/s 740 mmHg 51%
    20:00 +24°C° 0 mm 3 m/s 740 mmHg 56%
    21:00 +21°C° 0 mm 3 m/s 740 mmHg 61%
    22:00 +21°C° 0,1 mm 3 m/s 740 mmHg 69%
    23:00 +20°C° 0,1 mm 2 m/s 741 mmHg 76%

    23 August, Joi

    Timp Temperatura Precipitaţii Vânt Presiune Umiditate
    00:00 +19°C° 0,1 mm 2 m/s 741 mmHg 83%
    01:00 +18°C° 0,1 mm 2 m/s 741 mmHg 83%
    02:00 +18°C° 0,1 mm 2 m/s 741 mmHg 83%
    03:00 +17°C° 0,1 mm 2 m/s 741 mmHg 83%
    04:00 +17°C° 0 mm 2 m/s 741 mmHg 81%
    05:00 +16°C° 0 mm 2 m/s 741 mmHg 79%
    06:00 +16°C° 0 mm 1 m/s 742 mmHg 78%
    07:00 +19°C° 0 mm 1 m/s 742 mmHg 70%
    08:00 +21°C° 0 mm 1 m/s 742 mmHg 61%
    09:00 +22°C° 0 mm 1 m/s 742 mmHg 53%
    10:00 +24°C° 0 mm 1 m/s 742 mmHg 49%
    11:00 +25°C° 0 mm 2 m/s 742 mmHg 44%
    12:00 +26°C° 0 mm 2 m/s 742 mmHg 39%
    13:00 +26°C° 0 mm 2 m/s 741 mmHg 38%
    14:00 +27°C° 0 mm 2 m/s 741 mmHg 37%
    15:00 +27°C° 0 mm 3 m/s 741 mmHg 37%
    16:00 +27°C° 0 mm 3 m/s 741 mmHg 40%
    17:00 +26°C° 0 mm 2 m/s 741 mmHg 44%
    18:00 +25°C° 0 mm 2 m/s 741 mmHg 47%
    19:00 +23°C° 0 mm 2 m/s 741 mmHg 49%
    20:00 +21°C° 0 mm 2 m/s 741 mmHg 50%
    21:00 +20°C° 0 mm 1 m/s 741 mmHg 52%
    22:00 +19°C° 0 mm 1 m/s 740 mmHg 53%
    23:00 +19°C° 0 mm 1 m/s 740 mmHg 53%
    Arată mai mult